Regional Weather Roundup
Issued by NWS Newport/Morehead, NC

Current Version | Previous Version | Text Only | Print | Product List | Glossary On
Versions: 1 2 3 4 5 6 7 8 9 10 11 12 13 14 15 16 17 18 19 20 21 22 23 24 25 26 27 28 29 30 31 32 33 34 35 36 37 38 39 40 41 42 43 44 45 46 47 48 49 50
000
ASUS42 KMHX 191014
RWRMHX
WEATHER ROUNDUP FOR EASTERN NORTH CAROLINA
NATIONAL WEATHER SERVICE NEWPORT/MOREHEAD CITY NC
600 AM EDT TUE SEP 19 2017

NOTE: "FAIR" INDICATES FEW OR NO CLOUDS BELOW 12,000 FEET
WITH NO SIGNIFICANT WEATHER AND/OR OBSTRUCTIONS TO VISIBILITY

NCZ015>017-031-032-045>047-102-103-191100-
NORTH COAST

CITY           SKY/WX    TMP DP  RH WIND       PRES   REMARKS
EDENTON        MOCLDY    71  68  90 N14       29.86S
ELIZABETH CITY CLOUDY    73  69  87 N16       29.83S
KITTY HAWK     DRIZZLE   72  67  83 N14G31    29.77S
MANTEO         CLOUDY    72  67  85 N18G31    29.79S

$$

NCZ045>047-081-094-103-104-191100-
CENTRAL COAST

CITY           SKY/WX    TMP DP  RH WIND       PRES   REMARKS
FRISCO         CLOUDY    74  69  85 NW14G28   29.78R

$$

NCZ095-097-098-100-101-191100-
SOUTHERN COAST

CITY           SKY/WX    TMP DP  RH WIND       PRES   REMARKS
BEAUFORT       PTCLDY    70  70 100 NW15      29.86R
CEDAR ISLAND   NOT AVBL
JACKSONVILLE   CLEAR     68  68 100 NW8       29.90R
PINEY ISLAND     N/A    N/A N/A N/A NW12      29.84S
WILMINGTON     CLOUDY    69  67  93 NW8       29.93R


$$

NCZ011>013-027>030-043-044-078>080-089-090>093-098-191100-
COASTAL PLAIN

CITY           SKY/WX    TMP DP  RH WIND       PRES   REMARKS
AHOSKIE          N/A     68  66  94 N7        29.91S
CLINTON        CLEAR     67  67 100 CALM      29.95R
ELIZABETHTOWN  NOT AVBL
GOLDSBORO      CLEAR     69  69 100 NW6       29.92R
GREENVILLE     PTCLDY    68  68 100 NW7       29.93R
HAVELOCK       MOCLDY    71  69  93 NW12      29.88S
KENANSVILLE    CLOUDY    68  66  94 NW6       29.94R
KINSTON        CLOUDY    68  67  94 NW6       29.93R
NEW BERN       CLOUDY    70  68  93 NW9       29.89R
RICHLANDS      MOCLDY    67  66  97 VRB5      29.92R
ROCKY MOUNT    MOCLDY    67  66  97 NW10      29.94S
WASHINGTON     CLOUDY    69  66  93 N9        29.89R
WHITEVILLE     CLEAR     67  66  96 CALM      29.95R

$$

AMZ130-135-150-152-154-156-158-170-250-252-270-ANZ085-086-088-633-658-670-191100-
MARINE OBSERVATIONS

STATION/POSITION TIME  TEMP    WIND        PRES    WAVE   SWELL
                       AIR SEA DIR/SP/G            HT/PER HT/PER
                 (UTC) (F)     (DEG/KT/KT) (MB)    (FT/S) (FT/S)
CHESAPEAKE LIGHT NOT AVBL
64 E VA BEACH    0950   71 72  350/ 29/ 37 1005.1   16/12  11/12
DUCK             0942   74 75  360/ 30/ 33 1007.7
2 E DUCK         1000      76                N/A    12/13   8/13
OREGON INLET     0942   72 75  340/ 20/ 28 1007.8
13E OREGON INLT  0948      74                N/A    15/13  15/13
HATTERAS CG      0942   74 76  330/ 24/ 28 1008.3
DIAMOND BUOY     0950   74 78  330/ 21/ 27 1007.1   13/13  11/13
CAPE LOOKOUT     1000   71     320/ 13/ 16 1010.5
BEAUFORT LAB     0942   71 74  340/ 10/ 14 1010.5
30 SE NEW RVR IN 0908   74     340/ 16/ 21 1011.3
30 SE NEW RVR IN NOT AVBL
27 SE WRIGHTSVLE 0908   74 80   10/ 16/ 23 1012.0
5 SE WRIGHTSVLE  0908   71 78  360/ 16/ 23 1012.3
225 S CAPE HAT   0950   80 80  300/ 14/ 17 1010.7   10/11   8/11
41 SE CHARLESTON 0950   78 82  320/  8/ 12 1013.2    5/12   5/12

$$



USA.gov is the U.S. government's official web portal to all federal, state and local government web resources and services.